Location: Newark
(40.4667°N, 5.6000°W)
Time: 12:45:53
(UTC+00:00)

Altair - All Passes

Search period start: 22 November 2019 00:00
Search period end: 02 December 2019 00:00
Orbit: 1502 x 1682 km, 47.2° (Epoch: 21 November)

Date Brightness Start Highest point End Pass type
(mag) Time Alt. Az. Time Alt. Az. Time Alt. Az.
22 Nov - 00:41:22 10° S 00:49:11 32° SE 00:56:57 10° ENE visible
22 Nov - 02:43:50 10° WSW 02:53:04 88° SSE 03:02:19 10° ENE visible
22 Nov - 04:49:20 10° W 04:58:22 58° N 05:07:31 10° ENE visible
22 Nov - 06:54:52 10° WNW 07:04:04 69° NNE 07:13:31 10° ESE daylight
22 Nov - 08:59:45 10° WNW 09:08:45 57° SW 09:18:03 10° SE daylight
22 Nov - 11:07:09 10° W 11:12:00 15° SW 11:16:56 10° SSW daylight
23 Nov - 00:16:34 10° S 00:24:09 29° SE 00:31:37 10° ENE night (unlit)
23 Nov - 02:18:40 10° SW 02:27:55 84° SSE 02:37:08 10° ENE visible
23 Nov - 04:24:05 10° W 04:33:08 59° N 04:42:17 10° ENE visible
23 Nov - 06:29:41 10° WNW 06:38:51 67° NNE 06:48:15 10° E visible
23 Nov - 08:34:34 10° WNW 08:43:37 61° SW 08:52:59 10° SE daylight
23 Nov - 10:41:27 10° W 10:46:58 17° SW 10:52:36 10° SSW daylight
23 Nov - 23:51:50 10° S 23:59:07 26° SE 00:06:16 10° ENE night (unlit)
24 Nov - 01:53:32 10° SW 02:02:46 79° SSE 02:11:58 10° ENE visible
24 Nov - 03:58:49 10° W 04:07:54 60° N 04:17:02 10° ENE visible
24 Nov - 06:04:30 10° WNW 06:13:38 65° NNE 06:22:59 10° E visible
24 Nov - 08:09:23 10° WNW 08:18:30 65° SW 08:27:54 10° SE daylight
24 Nov - 10:15:52 10° W 10:21:56 19° SW 10:28:09 10° SSW daylight
24 Nov - 23:27:09 10° S 23:34:04 24° SE 23:40:53 10° E night (unlit)
25 Nov - 01:28:25 10° SW 01:37:38 75° SE 01:46:47 10° ENE visible
25 Nov - 03:33:35 10° W 03:42:41 61° N 03:51:48 10° ENE visible
25 Nov - 05:39:18 10° WNW 05:48:25 63° NNE 05:57:42 10° E visible
25 Nov - 07:44:13 10° WNW 07:53:22 70° SW 08:02:47 10° SE daylight
25 Nov - 09:50:22 10° W 09:56:53 22° SW 10:03:35 10° S daylight
25 Nov - 23:02:31 10° S 23:09:02 21° SE 23:15:27 10° E night (unlit)
26 Nov - 01:03:18 10° SW 01:12:31 70° SE 01:21:37 10° ENE visible
26 Nov - 03:08:19 10° W 03:17:26 63° NNW 03:26:35 10° ENE visible
26 Nov - 05:14:06 10° WNW 05:23:12 62° NNE 05:32:25 10° E visible
26 Nov - 07:19:03 10° WNW 07:28:14 74° SW 07:37:40 10° SE daylight
26 Nov - 09:24:56 10° W 09:31:51 24° SW 09:38:56 10° S daylight
26 Nov - 22:37:58 10° SSE 22:44:00 19° SE 22:49:57 10° E night (unlit)
27 Nov - 00:38:13 10° SW 00:47:23 66° SE 00:56:26 10° ENE visible
27 Nov - 02:43:04 10° W 02:52:13 65° NNW 03:01:22 10° ENE visible
27 Nov - 04:48:53 10° WNW 04:57:58 60° N 05:07:09 10° E visible
27 Nov - 06:53:54 10° WNW 07:03:05 79° SSW 07:12:31 10° SE visible
27 Nov - 08:59:33 10° WNW 09:06:48 26° SW 09:14:14 10° S daylight
27 Nov - 22:13:31 10° SSE 22:18:59 17° SE 22:24:22 10° E night (unlit)
28 Nov - 00:13:09 10° SW 00:22:16 61° SE 00:31:15 10° ENE night (unlit)
28 Nov - 02:17:49 10° W 02:27:01 67° NNW 02:36:10 10° ENE visible
28 Nov - 04:23:41 10° WNW 04:32:44 59° N 04:41:52 10° E visible
28 Nov - 06:28:44 10° WNW 06:37:57 83° SSW 06:47:22 10° SE visible
28 Nov - 08:34:12 10° WNW 08:41:45 29° SW 08:49:29 10° S daylight
28 Nov - 21:49:12 10° SSE 21:53:58 15° SE 21:58:39 10° E night (unlit)
28 Nov - 23:48:06 10° SW 23:57:10 57° SE 00:06:04 10° ENE night (unlit)
29 Nov - 01:52:34 10° WSW 02:01:48 69° NNW 02:10:59 10° ENE visible
29 Nov - 03:58:27 10° WNW 04:07:29 58° N 04:16:36 10° E visible
29 Nov - 06:03:34 10° WNW 06:12:47 87° SSW 06:22:12 10° ESE visible
29 Nov - 08:08:54 10° WNW 08:16:41 32° SW 08:24:40 10° S daylight
29 Nov - 21:25:06 10° SSE 21:28:57 13° ESE 21:32:45 10° E night (unlit)
29 Nov - 23:23:04 10° SSW 23:32:04 53° SE 23:40:53 10° ENE night (unlit)
30 Nov - 01:27:19 10° WSW 01:36:36 71° NNW 01:45:48 10° ENE visible
30 Nov - 03:33:13 10° WNW 03:42:16 58° N 03:51:20 10° E visible
30 Nov - 05:38:24 10° WNW 05:47:38 89° NNE 05:57:01 10° ESE visible
30 Nov - 07:43:36 10° WNW 07:51:37 35° SW 07:59:50 10° SSE daylight
30 Nov - 21:01:26 10° SE 21:03:56 11° ESE 21:06:25 10° ESE night (unlit)
30 Nov - 22:58:04 10° SSW 23:06:58 49° SE 23:15:41 10° ENE night (unlit)
01 Dec - 01:02:05 10° WSW 01:11:24 74° NNW 01:20:37 10° ENE visible
01 Dec - 03:07:58 10° WNW 03:17:01 57° N 03:26:05 10° E visible
01 Dec - 05:13:14 10° WNW 05:22:27 85° NNE 05:31:49 10° ESE visible
01 Dec - 07:18:20 10° WNW 07:26:33 38° SW 07:34:57 10° SSE daylight
01 Dec - 22:33:05 10° SSW 22:41:53 45° SE 22:50:28 10° ENE night (unlit)
